Time,TemperatureF,DewpointF,PressureIn,WindDirection,WindDirectionDegrees,WindSpeedMPH,WindSpeedGustMPH,Humidity,HourlyPrecipIn,Conditions,Clouds,dailyrainin,SoftwareType,DateUTC
2013-03-17 00:02:00,62.8,46.0,29.85,ESE,118,0.0,-999.0,54,-99.99,,,0.00,weatherlink.com 1.10,2013-03-17 04:02:00,
2013-03-17 00:17:00,62.8,46.0,29.85,SSE,163,2.0,-999.0,55,-99.99,,,0.00,weatherlink.com 1.10,2013-03-17 04:17:00,
2013-03-17 00:32:00,62.8,46.0,29.85,SSE,158,0.0,-999.0,54,-99.99,,,0.00,weatherlink.com 1.10,2013-03-17 04:32:00,
2013-03-17 00:47:00,62.7,46.0,29.85,SE,125,1.0,-999.0,55,-99.99,,,0.00,weatherlink.com 1.10,2013-03-17 04:47:00,
2013-03-17 01:02:00,62.7,46.0,29.85,ESE,112,0.0,-999.0,55,-99.99,,,0.00,weatherlink.com 1.10,2013-03-17 05:02:00,
2013-03-17 01:17:00,62.6,46.0,29.85,SE,135,0.0,-999.0,55,-99.99,,,0.00,weatherlink.com 1.10,2013-03-17 05:17:00,
2013-03-17 01:32:00,62.5,46.0,29.85,ENE,77,0.0,-999.0,55,-99.99,,,0.00,weatherlink.com 1.10,2013-03-17 05:32:00,
2013-03-17 01:47:00,62.6,46.0,29.85,SSE,158,0.0,-999.0,55,-99.99,,,0.00,weatherlink.com 1.10,2013-03-17 05:47:00,
2013-03-17 02:02:00,62.2,46.0,29.84,SE,125,0.0,-999.0,56,-99.99,,,0.00,weatherlink.com 1.10,2013-03-17 06:02:00,
2013-03-17 02:17:00,62.6,46.0,29.84,SSW,204,0.0,-999.0,56,-99.99,,,0.00,weatherlink.com 1.10,2013-03-17 06:17:00,
2013-03-17 02:32:00,62.0,46.0,29.84,SW,219,0.0,-999.0,56,-99.99,,,0.00,weatherlink.com 1.10,2013-03-17 06:32:00,
2013-03-17 02:47:00,61.7,46.0,29.84,West,270,7.0,-999.0,56,-99.99,,,0.00,weatherlink.com 1.10,2013-03-17 06:47:00,
2013-03-17 03:02:00,61.6,45.0,29.84,SE,137,0.0,-999.0,55,-99.99,,,0.00,weatherlink.com 1.10,2013-03-17 07:02:00,
2013-03-17 03:17:00,61.3,45.0,29.84,WNW,291,5.0,-999.0,56,-99.99,,,0.00,weatherlink.com 1.10,2013-03-17 07:17:00,
2013-03-17 03:32:00,61.1,45.0,29.84,SSW,200,2.0,-999.0,56,-99.99,,,0.00,weatherlink.com 1.10,2013-03-17 07:32:00,
2013-03-17 03:47:00,60.5,45.0,29.84,ENE,67,1.0,-999.0,57,-99.99,,,0.00,weatherlink.com 1.10,2013-03-17 07:47:00,
2013-03-17 04:02:00,60.5,45.0,29.84,SSW,211,0.0,-999.0,57,-99.99,,,0.00,weatherlink.com 1.10,2013-03-17 08:02:00,
2013-03-17 04:17:00,60.4,45.0,29.83,SW,222,0.0,-999.0,57,-99.99,,,0.00,weatherlink.com 1.10,2013-03-17 08:17:00,
2013-03-17 04:32:00,60.3,45.0,29.83,SE,137,1.0,-999.0,57,-99.99,,,0.00,weatherlink.com 1.10,2013-03-17 08:32:00,
2013-03-17 04:47:00,59.7,45.0,29.83,South,183,1.0,-999.0,58,-99.99,,,0.00,weatherlink.com 1.10,2013-03-17 08:47:00,
2013-03-17 05:02:00,59.2,45.0,29.83,SSE,165,0.0,-999.0,59,-99.99,,,0.00,weatherlink.com 1.10,2013-03-17 09:02:00,
2013-03-17 05:17:00,58.9,45.0,29.83,ESE,123,0.0,-999.0,60,-99.99,,,0.00,weatherlink.com 1.10,2013-03-17 09:17:00,
2013-03-17 05:32:00,58.6,45.0,29.84,NW,322,0.0,-999.0,60,-99.99,,,0.00,weatherlink.com 1.10,2013-03-17 09:32:00,
2013-03-17 05:47:00,58.4,45.0,29.84,SSE,148,4.0,-999.0,61,-99.99,,,0.00,weatherlink.com 1.10,2013-03-17 09:47:00,
2013-03-17 06:02:00,57.8,45.0,29.84,WSW,252,0.0,-999.0,62,-99.99,,,0.00,weatherlink.com 1.10,2013-03-17 10:02:00,
2013-03-17 06:17:00,57.2,45.0,29.85,SE,131,4.0,-999.0,64,-99.99,,,0.00,weatherlink.com 1.10,2013-03-17 10:17:00,
2013-03-17 06:32:00,56.8,45.0,29.85,SE,128,3.0,-999.0,66,-99.99,,,0.00,weatherlink.com 1.10,2013-03-17 10:32:00,
2013-03-17 06:47:00,56.7,46.0,29.85,WNW,291,0.0,-999.0,67,-99.99,,,0.00,weatherlink.com 1.10,2013-03-17 10:47:00,
2013-03-17 07:02:00,56.2,46.0,29.85,South,191,0.0,-999.0,68,-99.99,,,0.00,weatherlink.com 1.10,2013-03-17 11:02:00,
2013-03-17 07:17:00,55.8,46.0,29.85,ESE,119,1.0,-999.0,70,-99.99,,,0.00,weatherlink.com 1.10,2013-03-17 11:17:00,
2013-03-17 07:32:00,55.8,47.0,29.86,SW,218,0.0,-999.0,71,-99.99,,,0.00,weatherlink.com 1.10,2013-03-17 11:32:00,
2013-03-17 07:47:00,55.4,46.0,29.86,ESE,116,1.0,-999.0,72,-99.99,,,0.00,weatherlink.com 1.10,2013-03-17 11:47:00,
2013-03-17 08:02:00,55.4,46.0,29.87,SSE,153,0.0,-999.0,72,-99.99,,,0.00,weatherlink.com 1.10,2013-03-17 12:02:00,
2013-03-17 08:17:00,55.6,47.0,29.87,South,177,1.0,-999.0,73,-99.99,,,0.00,weatherlink.com 1.10,2013-03-17 12:17:00,
2013-03-17 08:32:00,55.6,47.0,29.87,SE,131,1.0,-999.0,73,-99.99,,,0.00,weatherlink.com 1.10,2013-03-17 12:32:00,
2013-03-17 08:47:00,55.7,48.0,29.87,SSE,158,0.0,-999.0,74,-99.99,,,0.00,weatherlink.com 1.10,2013-03-17 12:47:00,
2013-03-17 09:02:00,55.7,48.0,29.88,ESE,112,0.0,-999.0,74,-99.99,,,0.00,weatherlink.com 1.10,2013-03-17 13:02:00,
2013-03-17 09:17:00,55.8,48.0,29.88,SW,231,1.0,-999.0,75,-99.99,,,0.00,weatherlink.com 1.10,2013-03-17 13:17:00,
2013-03-17 09:32:00,55.9,48.0,29.88,SW,215,0.0,-999.0,75,-99.99,,,0.00,weatherlink.com 1.10,2013-03-17 13:32:00,
2013-03-17 09:47:00,56.0,48.0,29.88,SW,216,2.0,-999.0,75,-99.99,,,0.00,weatherlink.com 1.10,2013-03-17 13:47:00,
2013-03-17 10:02:00,56.4,49.0,29.88,SW,218,1.0,-999.0,75,-99.99,,,0.00,weatherlink.com 1.10,2013-03-17 14:02:00,
2013-03-17 10:17:00,57.0,49.0,29.89,ENE,62,1.0,-999.0,74,-99.99,,,0.00,weatherlink.com 1.10,2013-03-17 14:17:00,
2013-03-17 10:32:00,57.6,49.0,29.88,SW,223,2.0,-999.0,73,-99.99,,,0.00,weatherlink.com 1.10,2013-03-17 14:32:00,
2013-03-17 10:47:00,57.8,49.0,29.88,ESE,116,4.0,-999.0,73,-99.99,,,0.00,weatherlink.com 1.10,2013-03-17 14:47:00,
2013-03-17 11:02:00,58.3,50.0,29.88,East,92,1.0,-999.0,73,-99.99,,,0.00,weatherlink.com 1.10,2013-03-17 15:02:00,
2013-03-17 11:17:00,58.9,50.0,29.88,WSW,243,2.0,-999.0,72,-99.99,,,0.00,weatherlink.com 1.10,2013-03-17 15:17:00,
2013-03-17 11:32:00,59.1,50.0,29.89,West,281,0.0,-999.0,71,-99.99,,,0.00,weatherlink.com 1.10,2013-03-17 15:32:00,
2013-03-17 11:47:00,59.9,50.0,29.88,ENE,77,0.0,-999.0,70,-99.99,,,0.00,weatherlink.com 1.10,2013-03-17 15:47:00,
2013-03-17 12:02:00,60.0,50.0,29.87,ENE,77,0.0,-999.0,70,-99.99,,,0.00,weatherlink.com 1.10,2013-03-17 16:02:00,
2013-03-17 12:17:00,61.1,50.0,29.87,WNW,299,2.0,-999.0,68,-99.99,,,0.00,weatherlink.com 1.10,2013-03-17 16:17:00,
2013-03-17 12:32:00,61.9,51.0,29.87,SSW,207,0.0,-999.0,67,-99.99,,,0.00,weatherlink.com 1.10,2013-03-17 16:32:00,
2013-03-17 12:47:00,62.4,50.0,29.87,ESE,121,1.0,-999.0,65,-99.99,,,0.00,weatherlink.com 1.10,2013-03-17 16:47:00,
2013-03-17 13:02:00,62.9,50.0,29.86,ENE,67,0.0,-999.0,64,-99.99,,,0.00,weatherlink.com 1.10,2013-03-17 17:02:00,
2013-03-17 13:17:00,63.0,51.0,29.86,SSW,200,0.0,-999.0,64,-99.99,,,0.00,weatherlink.com 1.10,2013-03-17 17:17:00,
2013-03-17 13:32:00,63.5,51.0,29.85,SE,128,0.0,-999.0,64,-99.99,,,0.00,weatherlink.com 1.10,2013-03-17 17:32:00,
2013-03-17 13:47:00,63.5,51.0,29.84,SE,146,1.0,-999.0,64,-99.99,,,0.00,weatherlink.com 1.10,2013-03-17 17:47:00,
2013-03-17 14:02:00,63.1,50.0,29.84,SSE,157,1.0,-999.0,63,-99.99,,,0.00,weatherlink.com 1.10,2013-03-17 18:02:00,
2013-03-17 14:17:00,63.1,49.0,29.83,East,99,1.0,-999.0,61,-99.99,,,0.00,weatherlink.com 1.10,2013-03-17 18:17:00,
2013-03-17 14:32:00,64.0,49.0,29.83,North,358,4.0,-999.0,59,-99.99,,,0.00,weatherlink.com 1.10,2013-03-17 18:32:00,
2013-03-17 14:47:00,64.6,49.0,29.82,SW,215,0.0,-999.0,58,-99.99,,,0.00,weatherlink.com 1.10,2013-03-17 18:47:00,
2013-03-17 15:02:00,66.0,49.0,29.82,South,173,0.0,-999.0,55,-99.99,,,0.00,weatherlink.com 1.10,2013-03-17 19:02:00,
2013-03-17 15:17:00,64.7,48.0,29.82,ENE,57,1.0,-999.0,56,-99.99,,,0.00,weatherlink.com 1.10,2013-03-17 19:17:00,
2013-03-17 15:32:00,65.2,48.0,29.81,SE,134,0.0,-999.0,55,-99.99,,,0.00,weatherlink.com 1.10,2013-03-17 19:32:00,
2013-03-17 15:47:00,65.9,49.0,29.81,SW,232,2.0,-999.0,54,-99.99,,,0.00,weatherlink.com 1.10,2013-03-17 19:47:00,
2013-03-17 16:02:00,65.4,48.0,29.80,SSE,154,1.0,-999.0,53,-99.99,,,0.00,weatherlink.com 1.10,2013-03-17 20:02:00,
2013-03-17 16:17:00,65.8,47.0,29.80,SSE,156,5.0,-999.0,51,-99.99,,,0.00,weatherlink.com 1.10,2013-03-17 20:17:00,
2013-03-17 16:32:00,65.6,47.0,29.80,West,262,0.0,-999.0,51,-99.99,,,0.00,weatherlink.com 1.10,2013-03-17 20:32:00,
2013-03-17 16:47:00,65.3,47.0,29.80,South,169,0.0,-999.0,52,-99.99,,,0.00,weatherlink.com 1.10,2013-03-17 20:47:00,
2013-03-17 17:02:00,66.2,48.0,29.80,NE,37,0.0,-999.0,52,-99.99,,,0.00,weatherlink.com 1.10,2013-03-17 21:02:00,
2013-03-17 17:17:00,65.0,47.0,29.80,WSW,258,5.0,-999.0,53,-99.99,,,0.00,weatherlink.com 1.10,2013-03-17 21:17:00,
2013-03-17 17:32:00,65.4,47.0,29.80,WNW,302,0.0,-999.0,51,-99.99,,,0.00,weatherlink.com 1.10,2013-03-17 21:32:00,
2013-03-17 17:47:00,65.2,46.0,29.79,NE,39,0.0,-999.0,50,-99.99,,,0.00,weatherlink.com 1.10,2013-03-17 21:47:00,
2013-03-17 18:02:00,65.4,46.0,29.79,WNW,283,0.0,-999.0,49,-99.99,,,0.00,weatherlink.com 1.10,2013-03-17 22:02:00,
2013-03-17 18:17:00,65.0,44.0,29.79,East,89,0.0,-999.0,47,-99.99,,,0.00,weatherlink.com 1.10,2013-03-17 22:17:00,
2013-03-17 18:32:00,64.7,43.0,29.79,WSW,258,3.0,-999.0,45,-99.99,,,0.00,weatherlink.com 1.10,2013-03-17 22:32:00,
2013-03-17 18:47:00,63.8,43.0,29.79,SSE,166,0.0,-999.0,47,-99.99,,,0.00,weatherlink.com 1.10,2013-03-17 22:47:00,
2013-03-17 19:02:00,63.6,43.0,29.80,WSW,250,0.0,-999.0,47,-99.99,,,0.00,weatherlink.com 1.10,2013-03-17 23:02:00,
2013-03-17 19:17:00,63.7,43.0,29.80,East,94,1.0,-999.0,47,-99.99,,,0.00,weatherlink.com 1.10,2013-03-17 23:17:00,
2013-03-17 19:32:00,63.4,43.0,29.80,SE,130,0.0,-999.0,48,-99.99,,,0.00,weatherlink.com 1.10,2013-03-17 23:32:00,
2013-03-17 19:47:00,63.2,44.0,29.81,ENE,60,0.0,-999.0,49,-99.99,,,0.00,weatherlink.com 1.10,2013-03-17 23:47:00,
2013-03-17 20:02:00,62.1,45.0,29.81,ENE,72,0.0,-999.0,53,-99.99,,,0.00,weatherlink.com 1.10,2013-03-18 00:02:00,
2013-03-17 20:17:00,61.8,46.0,29.81,WNW,292,2.0,-999.0,56,-99.99,,,0.00,weatherlink.com 1.10,2013-03-18 00:17:00,
2013-03-17 20:32:00,61.3,46.0,29.81,West,273,0.0,-999.0,58,-99.99,,,0.00,weatherlink.com 1.10,2013-03-18 00:32:00,
2013-03-17 20:47:00,61.0,47.0,29.82,West,273,0.0,-999.0,60,-99.99,,,0.00,weatherlink.com 1.10,2013-03-18 00:47:00,
2013-03-17 21:02:00,60.4,48.0,29.82,WSW,256,0.0,-999.0,63,-99.99,,,0.00,weatherlink.com 1.10,2013-03-18 01:02:00,
2013-03-17 21:32:00,59.8,48.0,29.82,WNW,290,0.0,-999.0,65,-99.99,,,0.00,weatherlink.com 1.10,2013-03-18 01:32:00,
2013-03-17 21:47:00,59.9,48.0,29.82,NE,54,0.0,-999.0,65,-99.99,,,0.00,weatherlink.com 1.10,2013-03-18 01:47:00,
2013-03-17 22:02:00,59.6,48.0,29.82,NNE,12,0.0,-999.0,65,-99.99,,,0.00,weatherlink.com 1.10,2013-03-18 02:02:00,
2013-03-17 22:17:00,59.8,48.0,29.82,North,356,0.0,-999.0,65,-99.99,,,0.00,weatherlink.com 1.10,2013-03-18 02:17:00,
2013-03-17 22:32:00,59.5,48.0,29.82,West,271,1.0,-999.0,65,-99.99,,,0.00,weatherlink.com 1.10,2013-03-18 02:32:00,
2013-03-17 22:47:00,59.6,48.0,29.83,NE,56,0.0,-999.0,65,-99.99,,,0.00,weatherlink.com 1.10,2013-03-18 02:47:00,
2013-03-17 23:02:00,59.4,48.0,29.83,SE,131,0.0,-999.0,66,-99.99,,,0.00,weatherlink.com 1.10,2013-03-18 03:02:00,
2013-03-17 23:17:00,59.3,48.0,29.83,NE,52,0.0,-999.0,66,-99.99,,,0.00,weatherlink.com 1.10,2013-03-18 03:17:00,
2013-03-17 23:32:00,58.9,48.0,29.83,WSW,254,0.0,-999.0,67,-99.99,,,0.00,weatherlink.com 1.10,2013-03-18 03:32:00,
2013-03-17 23:47:00,58.7,48.0,29.83,SW,235,0.0,-999.0,68,-99.99,,,0.00,weatherlink.com 1.10,2013-03-18 03:47:00,